Location: Newark
(50.0306°N, 2.3272°E)
Time: 21:15:28
(UTC+00:00)

Vanguard 1 Rocket - Pass Details

Date: 16 December 2019
Orbit: 650 x 4226 km, 34.3° (Epoch: 22 January)

Event Time Altitude Azimuth Distance (km) Brightness Sun altitude
Rises 21:19:44 0° 253° (WSW) 7,972 12.6 -51.0°
Reaches altitude 10° 21:26:13 10° 248° (WSW) 6,506 11.9 -51.9°
Enters shadow 21:37:19 32° 223° (SW) 3,949 10.5 -53.3°
Maximum altitude 21:42:41 40° 188° (S) 3,073 - -54.0°
Drops below altitude 10° 21:51:53 10° 123° (ESE) 3,701 - -55.2°
Sets 21:54:28 0° 115° (ESE) 4,341 - -55.5°
